Temperature
18 18 18 18 18 18 18 18 18 18 18 18 18 18 18 18 18 18 18 18 18 18 18 18 18 18 18 18 18 18 18 18 17 17 17 17 17 18 18 17 17 17 17
18 18 18 18 18 18 18 18 18 18 18 18 18 18 18 18 18 18 18 18 18 18 18 18 18 18 18 18 18 17 17 17 17 17 17 17 17 17 17 17 17 17 17
18 18 18 18 18 18 18 18 18 18 18 18 18 18 18 18 18 18 18 17 17 18 18 18 18 18 18 18 17 17 17 17 17 17 17 17 17 17 17 17 17 17 17
18 18 18 18 18 18 18 18 18 18 18 18 18 18 18 18 18 18 18 17 17 17 17 18 18 17 17 17 17 17 17 17 17 17 17 17 17 17 17 17 16 16 16
19 18 19 19 19 18 18 18 18 18 18 18 18 18 18 18 18 18 18 17 17 17 17 17 18 18 17 17 17 17 17 17 17 17 17 17 17 17 16 16 16 16 16
19 19 19 19 19 18 18 18 18 18 18 18 18 18 18 18 18 18 17 17 17 17 17 17 17 17 17 18 18 18 17 17 17 17 16 16 16 16 16 16 16 16 16
19 19 19 19 19 18 18 18 18 18 18 18 18 18 18 18 18 18 17 17 17 17 17 17 17 17 17 17 17 17 17 17 17 17 16 16 16 16 16 16 16 16 16
19 19 19 19 19 18 18 18 18 18 18 18 17 17 17 17 17 18 17 17 17 17 17 17 17 17 17 17 17 17 17 17 17 17 16 16 16 16 16 16 16 16 16
18 18 18 18 18 18 18 18 18 18 18 17 17 17 17 17 17 18 18 17 17 17 17 17 17 17 17 17 17 17 17 17 17 17 17 16 16 16 16 16 16 16 16
18 18 18 18 18 18 18 18 17 17 17 17 17 17 17 17 17 17 17 17 17 17 17 17 17 17 17 17 17 17 17 17 17 16 16 16 16 16 16 16 16 16 16
17 17 17 17 17 17 17 17 17 17 17 17 17 16 16 16 16 16 16 17 17 17 17 17 17 17 17 17 17 17 17 16 16 16 16 16 16 16 16 16 16 16 16
17 17 16 16 16 17 17 16 16 16 16 16 16 16 16 16 16 16 16 16 16 17 17 17 17 17 17 17 17 17 16 16 16 16 16 16 16 16 16 16 16 16 16
16 16 16 16 16 16 16 16 16 16 16 16 16 16 16 16 15 15 15 15 15 16 16 16 16 16 16 16 16 16 16 16 16 16 16 16 16 16 16 16 16 16 16
15 15 15 15 15 15 15 15 15 15 15 15 15 15 15 15 15 15 15 15 15 15 16 16 16 16 16 16 16 16 16 16 16 15 15 15 15 15 15 15 15 16 16
15 15 15 14 14 15 15 15 15 15 15 15 15 15 15 15 15 15 15 15 15 14 15 16 16 16 16 16 16 16 16 15 15 15 15 15 15 15 15 15 15 15 15
14 14 14 14 14 14 14 14 15 15 15 15 15 15 15 15 15 15 15 15 15 14 14 15 15 15 15 15 15 15 15 15 15 15 15 15 15 15 15 15 15 15 15
14 14 14 14 14 14 14 14 14 15 15 15 15 15 15 15 15 15 15 14 14 14 14 14 14 14 14 15 15 15 15 15 15 15 15 15 14 14 15 15 15 15 15
14 14 14 14 14 14 14 14 14 15 15 15 15 15 15 15 15 15 15 14 14 14 14 14 14 14 14 14 14 14 14 14 14 14 14 14 14 14 14 14 14 15 15
14 14 14 14 14 14 14 14 14 15 15 15 15 15 15 15 15 15 15 14 14 14 14 14 14 14 14 14 14 14 14 14 14 14 14 14 14 14 14 14 14 14 14
14 14 14 14 14 14 14 14 14 14 15 15 15 15 15 15 15 15 15 15 14 14 14 14 14 14 14 14 14 14 14 14 14 14 14 14 14 14 14 14 14 14 14
14 14 14 14 14 14 14 14 14 14 14 15 15 15 15 15 15 15 15 15 14 14 14 14 14 14 13 13 13 13 13 13 13 13 13 14 14 14 14 14 14 14 14
13 13 13 13 13 14 14 14 14 14 14 14 14 14 14 14 14 14 14 14 14 14 14 14 14 13 13 13 13 13 13 13 13 13 13 13 13 13 13 14 13 13 13
12 12 13 13 13 13 13 13 13 14 14 14 14 14 14 14 14 14 14 14 14 14 14 14 14 13 13 13 13 13 13 13 12 12 12 13 13 13 13 13 13 13 13
12 12 12 12 12 12 12 13 13 13 13 13 13 13 14 14 14 14 14 14 14 14 14 14 13 13 13 13 13 13 13 12 12 12 12 12 12 12 12 12 12 12 12
11 11 11 11 12 12 12 12 12 12 12 12 13 13 13 13 13 13 14 14 14 14 13 13 13 13 13 13 13 13 12 12 12 12 12 12 12 12 12 12 12 12 12
11 11 11 11 11 11 11 11 11 12 12 12 12 12 12 13 13 13 13 13 13 13 13 13 13 13 13 13 13 12 12 12 12 12 12 12 12 12 11 11 11 11 11
Wind_Speed
6 7 7 9 10 10 8 6 6 6 6 7 7 6 6 9 11 10 9 9 8 7 6 6 5 5 5 5 5 5 6 7 8 8 9 8 8 7 7 6 5 5 4
9 8 6 7 9 11 10 8 6 5 4 4 3 5 8 11 11 11 10 9 8 7 7 6 6 6 6 6 6 6 6 7 8 8 8 8 8 8 7 6 5 5 4
13 10 8 8 9 12 11 7 5 4 3 4 5 5 7 9 10 11 10 9 8 8 7 7 7 6 6 6 7 7 7 7 8 9 9 9 8 8 7 7 6 5 4
15 10 8 9 11 11 7 4 4 3 3 3 3 3 4 5 8 10 11 10 9 8 8 8 8 7 7 7 7 7 8 7 8 8 9 9 9 8 8 8 7 6 5
15 10 7 7 10 6 5 5 3 3 3 3 3 2 3 4 4 7 7 10 11 10 10 9 9 9 8 7 7 7 8 7 8 8 8 8 8 8 8 8 8 7 6
14 11 6 7 7 5 5 4 4 3 3 3 2 2 1 2 2 4 6 9 11 12 12 10 10 9 9 8 8 7 8 8 8 8 8 8 8 8 8 8 8 8 7
12 10 7 7 6 6 6 6 4 4 2 2 3 2 2 2 2 3 4 5 7 11 12 12 11 10 9 10 9 9 8 8 8 8 7 7 7 7 8 7 7 7 7
10 9 9 7 7 6 6 5 5 4 2 2 3 3 1 4 3 2 3 5 6 7 9 12 12 12 11 10 11 10 10 9 8 8 7 6 6 7 7 6 6 6 6
6 6 6 6 6 6 5 5 5 6 4 2 2 4 4 4 3 3 2 3 5 6 6 9 12 14 14 13 12 12 12 11 10 9 8 7 6 6 6 5 5 5 4
4 6 5 5 5 4 5 5 5 4 5 3 2 2 2 3 3 2 3 2 2 5 6 6 8 13 15 15 15 15 15 14 12 10 9 8 7 6 6 5 5 4 3
3 4 5 5 6 5 5 5 5 5 4 4 4 2 2 2 2 3 3 3 2 3 4 5 5 9 15 16 16 17 17 16 14 11 10 9 8 7 6 6 5 4 4
4 4 5 4 4 4 4 5 5 5 4 4 4 4 4 3 3 4 5 4 3 4 3 4 4 6 12 15 17 19 20 19 16 14 12 11 10 9 8 7 6 5 4
3 4 4 4 3 3 4 4 4 4 4 5 5 4 4 4 3 4 4 4 4 3 3 3 4 6 10 14 16 20 21 21 19 16 14 13 12 11 10 9 8 6 6
2 2 3 2 2 2 2 3 3 4 4 5 5 5 4 4 4 5 5 4 3 2 2 4 2 4 7 12 16 20 18 22 21 19 17 16 14 13 11 10 9 8 7
2 2 2 1 1 1 2 2 2 3 3 3 4 5 4 4 4 4 4 5 5 3 3 4 3 2 4 8 13 15 15 19 21 20 19 18 17 15 14 12 11 9 8
4 3 3 1 1 1 2 2 2 2 3 2 2 4 3 3 3 4 4 4 4 5 4 3 3 3 2 4 9 13 15 15 19 20 20 20 19 18 17 15 13 12 11
2 2 1 1 1 2 1 1 2 2 2 3 3 4 5 4 4 3 3 3 4 4 5 3 2 2 2 3 3 6 10 10 12 17 20 21 21 20 18 17 16 15 13
3 3 2 3 2 2 2 1 1 1 3 3 3 4 4 3 4 3 3 3 3 4 4 4 2 2 4 4 3 4 5 8 9 12 17 20 21 20 20 19 18 17 16
4 4 4 4 4 4 3 2 2 1 1 2 2 3 4 4 4 3 3 3 2 2 3 3 3 2 2 2 2 2 3 2 5 9 12 17 19 20 19 19 19 18 17
5 5 6 5 4 3 3 3 2 2 2 1 1 1 3 5 5 4 3 3 2 2 2 2 2 2 2 2 1 2 3 2 3 4 6 9 13 17 18 18 18 18 18
9 8 7 7 6 5 5 4 3 2 2 3 2 1 1 3 5 4 3 4 3 2 1 1 0 1 1 1 1 1 2 2 2 2 2 3 4 6 9 14 16 17 17
8 8 8 8 8 7 9 9 5 3 3 3 3 2 1 2 2 2 3 4 5 4 3 2 1 1 2 1 1 1 1 0 1 1 0 1 1 3 4 8 10 12 14
8 9 8 8 7 9 13 11 9 4 3 2 2 1 1 2 2 2 1 2 2 2 4 4 2 1 1 1 0 0 0 1 1 1 1 1 1 1 2 3 6 7 9
7 7 8 8 7 11 16 14 11 7 5 4 3 2 2 2 2 2 2 2 1 1 0 2 2 1 1 1 1 1 1 1 1 2 2 1 2 1 1 1 1 3 4
7 6 6 8 8 10 16 15 11 5 5 5 4 4 3 3 3 4 4 4 2 2 2 4 4 3 3 3 3 3 3 3 2 2 2 1 2 2 2 2 4 3 2
6 6 8 8 8 8 15 16 11 5 5 4 4 4 5 5 5 4 4 5 4 1 2 3 4 4 5 5 5 3 2 2 1 2 2 1 2 2 2 2 3 5 4
Wind_Direction
192 190 198 204 211 215 217 222 228 235 241 245 243 223 190 168 168 170 176 175 171 171 171 172 171 172 176 180 182 179 176 173 171 168 165 162 160 160 158 156 153 148 139
191 189 195 203 213 217 218 219 223 222 222 202 178 159 159 163 174 175 177 179 178 178 181 183 184 187 191 192 194 190 186 185 183 180 178 176 175 175 174 171 169 164 159
195 193 197 201 211 217 218 215 220 205 197 169 147 141 147 158 173 180 180 181 183 186 188 190 191 193 198 201 202 201 196 193 192 191 191 190 190 189 189 190 188 187 188
198 190 193 199 204 204 200 190 180 163 174 154 153 155 151 160 174 182 185 186 187 190 196 195 192 192 195 196 198 200 198 198 198 200 202 202 203 203 204 207 204 202 207
200 186 188 192 186 180 179 181 159 155 157 162 175 174 171 177 180 181 186 192 195 195 197 200 195 193 195 197 198 198 198 199 200 203 205 207 209 210 211 214 214 216 220
193 184 180 180 170 161 165 157 143 135 148 158 146 132 213 221 197 185 192 195 199 199 201 201 199 201 201 200 201 201 199 200 201 203 206 208 213 218 220 222 224 227 227
183 177 172 167 161 163 168 157 141 136 137 135 103 54 344 315 254 220 193 183 196 202 202 203 205 206 206 206 205 204 201 202 204 204 207 211 216 222 225 228 230 235 236
172 172 166 165 158 155 157 155 140 138 148 139 131 122 333 326 309 268 205 196 200 199 202 208 208 211 209 205 207 207 203 201 205 204 207 212 218 223 226 228 233 237 240
161 157 165 161 160 159 165 165 154 149 161 172 144 146 161 218 279 313 274 216 199 199 205 205 208 213 212 208 207 209 204 200 200 203 206 212 217 220 224 227 230 229 223
153 151 156 161 159 162 165 175 168 159 156 171 181 179 177 162 167 286 316 304 228 212 214 214 210 211 210 207 207 207 205 201 200 204 206 211 214 218 219 215 217 218 220
146 157 164 164 165 167 174 181 173 167 170 173 175 173 182 196 170 178 257 299 313 258 232 225 210 205 206 204 204 206 205 203 202 205 209 211 211 212 211 213 216 224 232
157 159 155 159 163 169 178 185 183 176 182 182 181 177 176 180 189 184 213 238 261 277 260 235 219 204 201 201 203 204 205 206 205 207 210 211 211 212 213 214 217 225 230
162 167 162 158 166 171 177 183 184 185 192 191 194 192 195 202 180 179 187 215 237 274 291 271 234 210 204 200 204 205 206 208 208 209 209 209 210 213 216 219 220 226 235
131 145 145 151 164 165 187 195 189 200 201 201 201 194 195 205 194 188 180 175 204 270 284 268 279 228 215 204 208 207 209 210 211 212 211 209 209 211 214 219 225 230 235
107 103 98 108 188 197 221 210 197 201 200 199 198 196 192 198 192 193 184 174 172 206 256 264 259 263 225 211 212 207 210 214 215 215 215 214 213 214 215 219 224 227 230
59 56 57 49 328 296 267 208 188 206 192 201 188 175 190 189 189 191 186 183 177 179 221 256 249 254 247 219 213 204 210 217 220 221 221 221 220 219 219 221 223 224 225
59 55 58 40 341 309 292 214 210 202 191 211 204 194 205 190 187 191 182 176 179 176 213 260 260 255 241 233 203 206 215 220 227 229 228 227 225 223 223 224 225 226 227
36 40 45 45 28 16 18 5 261 210 196 208 212 206 216 200 194 193 184 190 192 191 197 239 266 251 241 234 221 216 218 222 225 233 232 230 229 227 226 226 227 228 229
39 43 55 60 49 43 35 15 346 351 309 233 215 203 204 185 194 192 183 186 195 192 191 210 251 262 263 246 225 240 239 243 242 243 238 233 231 229 228 229 230 230 231
45 50 58 64 64 60 46 26 20 29 2 332 293 195 183 174 179 174 167 172 164 159 173 194 243 277 274 271 207 241 263 248 254 256 242 233 231 230 230 231 232 234 236
58 57 57 51 48 50 37 25 24 39 31 32 31 49 160 165 172 166 159 162 149 138 125 127 228 315 304 291 249 238 246 274 266 252 246 230 218 222 227 233 235 237 239
56 60 59 53 46 39 31 31 27 28 46 53 33 21 81 107 136 152 152 157 157 153 157 151 166 232 282 273 266 231 213 110 302 336 235 267 202 226 225 225 233 239 245
54 56 53 49 42 28 34 35 38 44 49 59 63 57 81 79 95 92 101 114 124 150 164 154 161 208 244 263 219 97 156 167 236 325 3 311 313 252 245 232 230 238 246
49 51 47 40 36 31 34 35 39 42 49 47 46 66 91 74 89 121 123 118 103 9 166 147 158 188 215 217 150 140 132 85 46 7 14 12 351 341 333 312 242 228 238
44 43 41 38 35 23 29 34 41 39 51 44 38 46 67 72 66 115 124 122 99 30 56 113 123 103 77 86 98 81 62 61 38 2 7 39 358 351 354 351 359 359 324
46 46 43 36 32 21 24 32 38 43 49 40 33 31 43 55 65 93 120 128 125 121 90 86 68 53 46 47 56 74 101 87 76 21 356 41 4 10 17 357 359 10 10
Height
1550 1551 1552 1554 1555 1556 1557 1558 1559 1559 1560 1561 1561 1562 1562 1563 1564 1564 1564 1563 1563 1563 1563 1563 1564 1565 1565 1566 1567 1567 1568 1568 1569 1569 1570 1570 1571 1571 1571 1571 1572 1572 1572
1548 1549 1551 1553 1554 1555 1557 1558 1558 1559 1560 1561 1561 1561 1562 1563 1564 1564 1564 1563 1563 1562 1563 1563 1563 1564 1564 1565 1566 1566 1567 1568 1568 1569 1569 1570 1570 1570 1571 1571 1571 1571 1571
1546 1547 1549 1551 1553 1554 1555 1557 1558 1559 1559 1560 1561 1561 1562 1562 1563 1563 1563 1563 1563 1563 1562 1563 1563 1563 1564 1564 1565 1565 1566 1567 1567 1568 1568 1569 1569 1569 1570 1570 1570 1570 1570
1544 1545 1547 1549 1551 1552 1554 1555 1556 1557 1559 1560 1560 1561 1562 1562 1562 1563 1563 1563 1563 1562 1562 1562 1562 1562 1563 1563 1563 1564 1565 1565 1566 1567 1567 1568 1568 1568 1569 1569 1569 1569 1569
1541 1543 1545 1546 1548 1550 1552 1553 1554 1556 1557 1558 1559 1560 1560 1561 1561 1561 1562 1562 1562 1562 1562 1562 1562 1562 1562 1562 1562 1563 1563 1564 1564 1565 1566 1566 1567 1567 1567 1567 1567 1567 1567
1537 1539 1542 1544 1546 1547 1549 1551 1552 1554 1555 1556 1557 1558 1559 1560 1560 1560 1560 1561 1561 1561 1561 1561 1561 1561 1561 1561 1561 1561 1562 1562 1562 1563 1564 1564 1565 1565 1565 1565 1565 1566 1566
1533 1535 1538 1540 1542 1544 1546 1548 1549 1551 1552 1554 1555 1556 1557 1557 1558 1558 1559 1559 1559 1560 1560 1560 1561 1561 1561 1561 1560 1560 1560 1561 1561 1561 1562 1562 1562 1563 1563 1563 1563 1564 1564
1529 1531 1533 1536 1538 1541 1543 1544 1545 1547 1549 1551 1552 1553 1554 1556 1555 1556 1556 1556 1557 1558 1558 1559 1559 1559 1560 1560 1560 1559 1559 1559 1559 1560 1560 1560 1560 1561 1561 1561 1561 1561 1562
1525 1527 1530 1532 1534 1537 1539 1540 1542 1543 1545 1547 1548 1550 1550 1550 1552 1553 1553 1553 1554 1555 1556 1556 1557 1557 1558 1558 1558 1558 1558 1558 1558 1558 1558 1558 1558 1559 1559 1559 1559 1559 1560
1520 1523 1525 1528 1531 1533 1535 1537 1538 1539 1541 1542 1544 1545 1547 1548 1549 1549 1550 1550 1551 1552 1553 1553 1554 1555 1555 1556 1556 1557 1557 1557 1557 1557 1557 1557 1557 1557 1557 1557 1558 1558 1558
1515 1518 1520 1523 1525 1528 1531 1532 1534 1535 1536 1538 1539 1540 1541 1543 1544 1546 1546 1547 1548 1549 1550 1550 1551 1551 1552 1553 1554 1554 1555 1555 1555 1555 1555 1555 1555 1555 1556 1556 1556 1556 1556
1510 1512 1514 1518 1521 1524 1526 1528 1530 1531 1532 1533 1534 1535 1537 1538 1539 1541 1542 1543 1544 1545 1546 1547 1547 1548 1549 1550 1551 1552 1552 1553 1553 1553 1554 1554 1554 1554 1554 1555 1555 1555 1555
1507 1508 1511 1513 1517 1520 1522 1525 1526 1527 1528 1529 1530 1531 1533 1534 1535 1536 1538 1538 1540 1541 1541 1542 1543 1544 1545 1546 1547 1549 1549 1550 1551 1551 1551 1551 1552 1552 1552 1553 1553 1553 1553
1505 1506 1509 1512 1514 1517 1519 1521 1523 1524 1525 1526 1527 1528 1529 1530 1531 1532 1534 1535 1536 1536 1537 1538 1539 1540 1541 1542 1544 1545 1546 1547 1548 1548 1549 1549 1549 1550 1550 1551 1551 1551 1551
1504 1505 1507 1509 1512 1514 1516 1518 1520 1521 1522 1523 1524 1525 1526 1527 1528 1529 1530 1531 1532 1532 1532 1533 1534 1535 1536 1538 1539 1540 1542 1543 1544 1545 1546 1546 1547 1547 1547 1548 1548 1549 1549
1504 1505 1506 1508 1510 1512 1515 1516 1518 1519 1520 1521 1522 1523 1524 1525 1525 1526 1527 1527 1528 1529 1529 1529 1530 1531 1532 1533 1534 1536 1537 1539 1540 1541 1542 1543 1543 1544 1544 1545 1545 1546 1546
1505 1506 1507 1509 1510 1511 1513 1515 1516 1518 1519 1520 1521 1522 1522 1523 1523 1524 1525 1525 1525 1526 1526 1527 1527 1527 1528 1529 1530 1531 1532 1533 1535 1536 1538 1539 1540 1541 1541 1542 1542 1543 1543
1507 1508 1509 1510 1510 1512 1513 1515 1516 1517 1518 1519 1520 1521 1521 1522 1522 1523 1523 1523 1523 1523 1524 1523 1524 1524 1524 1525 1526 1526 1527 1528 1529 1531 1533 1534 1535 1536 1537 1538 1539 1539 1540
1509 1510 1510 1511 1512 1513 1514 1515 1516 1517 1518 1518 1519 1520 1520 1521 1521 1521 1521 1521 1521 1522 1522 1521 1521 1521 1521 1522 1522 1522 1523 1524 1525 1526 1527 1529 1530 1531 1533 1534 1535 1535 1536
1511 1511 1511 1512 1513 1513 1514 1514 1515 1516 1517 1518 1518 1519 1519 1520 1520 1520 1520 1520 1520 1520 1520 1520 1519 1519 1519 1519 1519 1519 1519 1520 1520 1521 1522 1523 1525 1526 1527 1529 1530 1531 1531
1512 1512 1512 1512 1513 1513 1513 1514 1514 1515 1515 1516 1517 1517 1518 1519 1519 1519 1519 1519 1519 1519 1519 1518 1518 1518 1517 1517 1516 1516 1516 1516 1516 1517 1518 1519 1520 1520 1522 1523 1524 1526 1527
1513 1513 1513 1513 1512 1512 1512 1513 1513 1513 1514 1514 1515 1516 1517 1517 1518 1519 1519 1519 1519 1519 1518 1518 1518 1517 1516 1516 1515 1514 1514 1514 1514 1515 1515 1515 1515 1516 1517 1518 1519 1520 1521
1515 1514 1514 1513 1513 1512 1512 1512 1512 1512 1512 1513 1513 1514 1515 1516 1517 1518 1518 1518 1519 1519 1519 1518 1518 1517 1516 1515 1514 1513 1513 1513 1512 1512 1512 1512 1512 1512 1513 1513 1514 1515 1516
1517 1516 1515 1514 1513 1513 1512 1511 1510 1510 1510 1511 1511 1512 1513 1514 1515 1516 1517 1518 1518 1518 1518 1518 1517 1517 1516 1515 1514 1513 1513 1512 1512 1512 1512 1511 1511 1511 1510 1510 1510 1511 1511
1520 1518 1517 1516 1515 1513 1512 1511 1510 1510 1509 1510 1510 1511 1511 1512 1513 1514 1515 1516 1517 1517 1517 1517 1517 1517 1516 1515 1514 1514 1513 1513 1512 1512 1512 1512 1511 1510 1510 1510 1509 1509 1509
1522 1521 1519 1518 1516 1514 1513 1512 1511 1510 1509 1509 1509 1510 1510 1511 1511 1512 1514 1515 1516 1516 1517 1517 1517 1517 1516 1515 1515 1514 1514 1513 1513 1513 1513 1513 1512 1512 1512 1511 1510 1509 1509